SL-8 R/B (7004 NORAD) Tracking and Keplerian Element Data

This shows tracking and keplerian element data for the satellite.

Feedback or suggestion? Click here.




ElementValue
Catalog7004
NameSL-8 R/B
Epoch Orbit47062
Epoch Day204.77194991
Epoch Year2021
RAAN307.9676
Inclination73.8846
Eccentricity0.0013503
Argument of Perigee255.1531
Mean Anonmoly104.8238
Mean Motion16.51259389
Decay Rate0.11004814
L11 07004U 73107B 21204.77194991 .11004814 20894-5 95609-4 0 9995
L22 07004 73.8846 307.9676 0013503 255.1531 104.8238 16.51259389470625



Live tracking and technical data element details for SL-8 R/B (NORAD 7004). SL-8 R/B can be tracked NOW for your location showing map with azimuth and elevation plus other details from your city location.







IsCatalogInMostPopularTable: catalog: 7004, numindb: 380
Update: records affected: 1



GetName: 7004 SL-8 R/B

Hit Count: updated at: Thu, 15 May 2025 20:00:39 GMT